Miscellaneous Local Product
Issued by NWS North Platte, NE

Home | Current Version | Previous Version | Graphics & Text | Print | Product List | Glossary On
Versions: 1 2 3 4 5 6 7 8 9 10 11 12 13 14 15 16 17 18 19 20 21 22 23 24 25 26 27 28 29 30 31 32 33 34 35 36 37 38 39 40 41 42 43 44 45 46 47 48 49 50
000
AXUS43 KLBF 030110
MISLBF


WESTERN AND NORTH CENTRAL NEBRASKA HOURLY WEATHER ROUNDUP
NATIONAL WEATHER SERVICE NORTH PLATTE NE
800 PM CDT WED SEP 02 2015

NOTE: "FAIR" INDICATES FEW OR NO CLOUDS BELOW 12,000 FEET WITH NO
SIGNIFICANT WEATHER AND/OR OBSTRUCTIONS TO VISIBILITY.

NOTE: STATIONS NOT REPORTING VARIABLES SUCH AS SKY/WEATHER OR
PRESSURE ARE PROVIDED BY THE NEBRASKA DEPARTMENT OF
ROADS...RAWS...AND APRS NETWORKS...AND ARE NOT UNDER
NATIONAL WEATHER SERVICE QUALITY CONTROL.

...OBSERVATIONS IN AND NEAR THE EASTERN PANHANDLE OF NEBRASKA...

CITY           SKY/WX    TMP DP  RH WIND       PRES   REMARKS
PINE RIDGE     CLEAR     86  49  27 S7        29.82R
CHADRON        CLEAR     85  49  28 S9        29.80R
ALLIANCE       CLEAR     85  45  24 S6        29.88R
SIDNEY         CLEAR     83  42  23 S7        29.93S
CRESCENT LAKE    N/A     87  47  24 S3          N/A
BIG SPRINGS      N/A     84  61  45 SE5         N/A
$$

...OBSERVATIONS IN NORTH CENTRAL NEBRASKA...

CITY           SKY/WX    TMP DP  RH WIND       PRES   REMARKS
VALENTINE      PTCLDY    88  51  28 S7        29.78S
THEDFORD       CLEAR     89  58  35 S12       29.85S
AINSWORTH      PTCLDY    86  55  33 S10       29.81R
O`NEILL        PTCLDY    84  71  65 SE8       29.82R
ORD            CLEAR     87  66  49 SE8       29.82R
BROKEN BOW     CLEAR     84  65  52 SE5       29.85R
SPRINGVIEW       N/A     90  62  38 SE6G13      N/A  HX  90
SARGENT          N/A     84  65  52 CALM        N/A
CHAMBERS         N/A     82  66  58 CALM        N/A
EWING            N/A     81  70  69 CALM        N/A
$$

...OBSERVATIONS IN SOUTHWEST NEBRASKA AND FAR NORTHEAST COLORADO...

CITY           SKY/WX    TMP DP  RH WIND       PRES   REMARKS
WRAY           CLOUDY    89  45  21 SE5       29.89R
HOLYOKE        FAIR      84  59  42 CALM      29.89S
IMPERIAL       PTCLDY    86  56  35 E8        29.86R
OGALLALA       CLEAR     87  55  33 SE7       29.86S
NORTH PLATTE   CLEAR     79  67  66 E8        29.84R
MCCOOK         CLEAR     89  57  33 E7        29.82R
LEXINGTON      CLEAR     84  69  59 E7        29.83S
PAXTON           N/A     81  62  52 CALM        N/A
BRADY            N/A     82  69  64 NE3         N/A
CALLAWAY         N/A     78  69  73 SE5         N/A
$$

...OBSERVATIONS IN CENTRAL LINCOLN COUNTY AREA...

CITY           SKY/WX    TMP DP  RH WIND       PRES   REMARKS
N.P. AIRPORT   CLEAR     79  67  66 E8        29.84R
N.P. DOWNTOWN    N/A     88  57  34 CALM        N/A
N.P. SOUTHEAST   N/A     86  57  37 E3          N/A
N.P. HILLCREST   N/A     85  64  48 E9          N/A
$$

...SOME OBSERVATIONS FROM AROUND THE REGION...

CITY           SKY/WX    TMP DP  RH WIND       PRES   REMARKS
DENVER         PTCLDY    82  36  19 E7        30.01S
LARAMIE        MOCLDY    74  40  29 SW15      30.15S
CHEYENNE       MOCLDY    81  38  21 SW9       30.06S
SCOTTSBLUFF    CLEAR     86  50  28 SE8       29.88S
RAPID CITY     CLEAR     86  64  47 NE6       29.77R
PIERRE         CLEAR     86  69  56 E8        29.69S HX  90
WINNER         FAIR      89  58  34 S10       29.74R
SIOUX FALLS    PTCLDY    81  72  74 S12       29.82R
OMAHA          MOCLDY    84  72  67 SE15      29.83S
GRAND ISLAND   PTCLDY    84  67  56 SE5       29.83S
KANSAS CITY    PTCLDY    79  69  71 S9        29.92S
WICHITA        PTCLDY    86  63  45 S14       29.88S
HAYS           CLEAR     93  55  27 S17       29.81R HX  91
LIBERAL        MOCLDY    90  54  29 S16G24    29.91S
GOODLAND       PTCLDY    87  45  23 SW7       29.87S
$$



USA.gov is the U.S. government's official web portal to all federal, state and local government web resources and services.